Location: Street
(51.1247°N, 2.7429°W)
Time: 12:13:22
(UTC+00:00)

Explorer 11/Cluster Stage 4 - Visible Passes

Search period start: 30 November 2020 00:00
Search period end: 10 December 2020 00:00
Orbit: 467 x 1258 km, 28.8° (Epoch: 29 November)

Date Brightness Start Highest point End Pass type
(mag) Time Alt. Az. Time Alt. Az. Time Alt. Az.
05 Dec 9.6 20:07:53 10° SSW 20:08:39 11° SSW 20:08:39 11° SSW visible
06 Dec 9.5 19:56:13 10° SSW 19:58:24 12° S 19:58:24 12° S visible
07 Dec 9.6 17:59:29 10° S 18:00:29 10° SSE 18:01:28 10° SSE visible
07 Dec 9.4 19:44:42 10° SSW 19:48:01 13° S 19:48:10 13° S visible
08 Dec 9.6 17:47:10 10° S 17:49:13 11° SSE 17:51:16 10° SSE visible
08 Dec 9.4 19:33:19 10° SSW 19:36:45 13° S 19:37:55 13° S visible
09 Dec 9.6 17:35:23 10° S 17:37:57 12° SSE 17:40:31 10° SSE visible
09 Dec 9.4 19:22:02 10° SSW 19:25:30 13° S 19:27:42 12° SSE visible
